Location: Friaudour
(46.0460°N, 1.2873°E)
Time: 04:32:18
(UTC+00:00)

Cosmos 1980 Rocket - Pass Details

Date: 14 July 2020
Orbit: 828 x 851 km, 71.0° (Epoch: 06 August)

Event Time Altitude Azimuth Distance (km) Brightness Sun altitude
Rises 01:39:46 0° 337° (NNW) 3,429 6.0 -18.7°
Reaches altitude 10° 01:42:23 10° 345° (NNW) 2,489 5.3 -18.5°
Maximum altitude 01:47:47 41° 55° (NE) 1,219 3.5 -18.1°
Drops below altitude 10° 01:53:07 10° 125° (SE) 2,468 4.5 -17.7°
Sets 01:55:41 0° 133° (SE) 3,396 5.2 -17.5°
